When you browse on this site, cookies collect data to enhance your experience and personalize the content and advertising you see.
Visit our Privacy Policy to learn more. By continuing to use the site, you agree to this use of cookies and data.
  • In Spain
  • List of Countries
  • For 7 days
  • Water Temperature
  • Satellite Maps
  • Weather Map
  • Weather Widgets
  • user-avatar
    Login

    Hourly Weather Atlixco

    Today, 22 April, Monday

    Time Temperature Precipitation Wind Pressure Humidity
    00:00 +19°C° 0 mm 0 mps 613 mmHg 50%
    01:00 +19°C° 0 mm 0 mps 613 mmHg 51%
    02:00 +18°C° 0 mm 0 mps 612 mmHg 53%
    03:00 +18°C° 0 mm 0 mps 612 mmHg 53%
    04:00 +17°C° 0 mm 0 mps 612 mmHg 54%
    05:00 +17°C° 0 mm 0 mps 612 mmHg 54%
    06:00 +21°C° 0 mm 1 mps 613 mmHg 48%
    07:00 +23°C° 0 mm 1 mps 614 mmHg 43%
    08:00 +25°C° 0 mm 1 mps 614 mmHg 38%
    09:00 +27°C° 0 mm 2 mps 615 mmHg 34%
    10:00 +29°C° 0 mm 2 mps 615 mmHg 31%
    11:00 +30°C° 0 mm 3 mps 615 mmHg 27%
    12:00 +31°C° 0 mm 3 mps 615 mmHg 26%
    13:00 +31°C° 0 mm 3 mps 614 mmHg 24%
    14:00 +33°C° 0 mm 4 mps 614 mmHg 23%
    15:00 +31°C° 0.1 mm 3 mps 614 mmHg 25%
    16:00 +30°C° 0.1 mm 3 mps 613 mmHg 26%
    17:00 +29°C° 0.1 mm 3 mps 613 mmHg 27%
    18:00 +27°C° 0.1 mm 3 mps 613 mmHg 32%
    19:00 +26°C° 0.1 mm 3 mps 613 mmHg 36%
    20:00 +24°C° 0.1 mm 3 mps 613 mmHg 41%
    21:00 +24°C° 0 mm 2 mps 613 mmHg 44%
    22:00 +23°C° 0 mm 2 mps 613 mmHg 48%
    23:00 +22°C° 0 mm 1 mps 613 mmHg 52%

    Tomorrow, 23 April, Tuesday

    Time Temperature Precipitation Wind Pressure Humidity
    00:00 +22°C° 0 mm 1 mps 612 mmHg 52%
    01:00 +21°C° 0 mm 1 mps 612 mmHg 53%
    02:00 +21°C° 0 mm 1 mps 611 mmHg 53%
    03:00 +20°C° 0 mm 1 mps 611 mmHg 54%
    04:00 +18°C° 0 mm 0 mps 611 mmHg 55%
    05:00 +17°C° 0 mm 0 mps 611 mmHg 55%
    06:00 +21°C° 0 mm 1 mps 612 mmHg 51%
    07:00 +23°C° 0 mm 1 mps 613 mmHg 46%
    08:00 +25°C° 0 mm 2 mps 614 mmHg 41%
    09:00 +27°C° 0 mm 2 mps 614 mmHg 37%
    10:00 +28°C° 0 mm 2 mps 614 mmHg 33%
    11:00 +30°C° 0 mm 3 mps 615 mmHg 29%
    12:00 +30°C° 0 mm 3 mps 614 mmHg 28%
    13:00 +32°C° 0 mm 4 mps 613 mmHg 27%
    14:00 +32°C° 0 mm 4 mps 613 mmHg 27%
    15:00 +30°C° 0 mm 4 mps 612 mmHg 27%
    16:00 +30°C° 0 mm 3 mps 612 mmHg 27%
    17:00 +29°C° 0 mm 3 mps 612 mmHg 28%
    18:00 +27°C° 0 mm 3 mps 612 mmHg 31%
    19:00 +26°C° 0 mm 2 mps 612 mmHg 35%
    20:00 +24°C° 0 mm 2 mps 612 mmHg 38%
    21:00 +23°C° 0 mm 2 mps 612 mmHg 41%
    22:00 +23°C° 0 mm 1 mps 612 mmHg 43%
    23:00 +22°C° 0 mm 1 mps 612 mmHg 45%

    Day after tomorrow, 24 April, Wednesday

    Time Temperature Precipitation Wind Pressure Humidity
    00:00 +22°C° 0 mm 1 mps 611 mmHg 46%
    01:00 +21°C° 0 mm 1 mps 611 mmHg 47%
    02:00 +20°C° 0 mm 1 mps 610 mmHg 48%
    03:00 +20°C° 0 mm 1 mps 610 mmHg 48%
    04:00 +19°C° 0 mm 1 mps 610 mmHg 48%
    05:00 +19°C° 0 mm 1 mps 610 mmHg 48%
    06:00 +21°C° 0 mm 1 mps 611 mmHg 43%
    07:00 +23°C° 0 mm 2 mps 612 mmHg 39%
    08:00 +25°C° 0 mm 3 mps 613 mmHg 34%
    09:00 +27°C° 0 mm 3 mps 613 mmHg 32%
    10:00 +28°C° 0 mm 4 mps 614 mmHg 29%
    11:00 +30°C° 0 mm 4 mps 614 mmHg 27%
    12:00 +30°C° 0 mm 5 mps 613 mmHg 25%
    13:00 +32°C° 0 mm 5 mps 613 mmHg 23%
    14:00 +33°C° 0 mm 5 mps 612 mmHg 21%
    15:00 +32°C° 0 mm 5 mps 612 mmHg 22%
    16:00 +30°C° 0 mm 5 mps 611 mmHg 23%
    17:00 +29°C° 0 mm 5 mps 611 mmHg 24%
    18:00 +27°C° 0 mm 4 mps 611 mmHg 28%
    19:00 +26°C° 0 mm 3 mps 611 mmHg 32%
    20:00 +24°C° 0 mm 2 mps 611 mmHg 36%
    21:00 +23°C° 0 mm 2 mps 611 mmHg 36%
    22:00 +23°C° 0 mm 2 mps 611 mmHg 36%
    23:00 +22°C° 0 mm 1 mps 611 mmHg 36%

    25 April, Thursday

    Time Temperature Precipitation Wind Pressure Humidity
    00:00 +21°C° 0 mm 1 mps 611 mmHg 37%
    01:00 +21°C° 0 mm 1 mps 610 mmHg 37%
    02:00 +20°C° 0 mm 1 mps 609 mmHg 38%
    03:00 +19°C° 0 mm 1 mps 610 mmHg 40%
    04:00 +19°C° 0 mm 1 mps 610 mmHg 41%
    05:00 +18°C° 0 mm 1 mps 610 mmHg 42%
    06:00 +21°C° 0 mm 1 mps 611 mmHg 38%
    07:00 +23°C° 0 mm 1 mps 612 mmHg 34%
    08:00 +25°C° 0 mm 1 mps 614 mmHg 29%
    09:00 +27°C° 0 mm 2 mps 614 mmHg 26%
    10:00 +28°C° 0 mm 2 mps 614 mmHg 23%
    11:00 +30°C° 0 mm 3 mps 615 mmHg 20%
    12:00 +31°C° 0 mm 3 mps 614 mmHg 18%
    13:00 +32°C° 0 mm 4 mps 614 mmHg 16%
    14:00 +33°C° 0 mm 4 mps 613 mmHg 14%
    15:00 +32°C° 0 mm 4 mps 613 mmHg 14%
    16:00 +30°C° 0 mm 4 mps 613 mmHg 15%
    17:00 +29°C° 0 mm 4 mps 613 mmHg 15%
    18:00 +27°C° 0 mm 3 mps 613 mmHg 17%
    19:00 +26°C° 0 mm 2 mps 613 mmHg 19%
    20:00 +24°C° 0 mm 1 mps 613 mmHg 21%
    21:00 +23°C° 0 mm 1 mps 613 mmHg 22%
    22:00 +22°C° 0 mm 1 mps 613 mmHg 23%
    23:00 +22°C° 0 mm 1 mps 613 mmHg 24%

    26 April, Friday

    Time Temperature Precipitation Wind Pressure Humidity
    00:00 +21°C° 0 mm 1 mps 613 mmHg 31%
    01:00 +21°C° 0 mm 1 mps 613 mmHg 37%
    02:00 +19°C° 0 mm 2 mps 612 mmHg 43%
    03:00 +19°C° 0 mm 2 mps 612 mmHg 51%
    04:00 +18°C° 0 mm 2 mps 612 mmHg 58%
    05:00 +18°C° 0 mm 2 mps 612 mmHg 66%
    06:00 +20°C° 0 mm 2 mps 614 mmHg 59%
    07:00 +23°C° 0 mm 2 mps 615 mmHg 52%
    08:00 +25°C° 0 mm 2 mps 616 mmHg 45%
    09:00 +26°C° 0 mm 2 mps 616 mmHg 40%
    10:00 +28°C° 0 mm 2 mps 616 mmHg 35%
    11:00 +29°C° 0 mm 3 mps 616 mmHg 30%
    12:00 +30°C° 0.2 mm 3 mps 615 mmHg 29%
    13:00 +30°C° 0.2 mm 3 mps 615 mmHg 28%
    14:00 +31°C° 0.2 mm 3 mps 614 mmHg 27%
    15:00 +30°C° 0.2 mm 3 mps 614 mmHg 28%
    16:00 +29°C° 0.2 mm 2 mps 614 mmHg 30%
    17:00 +28°C° 0.2 mm 2 mps 614 mmHg 32%
    18:00 +27°C° 0.6 mm 2 mps 614 mmHg 37%
    19:00 +25°C° 0.6 mm 3 mps 614 mmHg 42%
    20:00 +24°C° 0.6 mm 3 mps 615 mmHg 48%
    21:00 +23°C° 0.1 mm 2 mps 615 mmHg 50%
    22:00 +23°C° 0.1 mm 2 mps 614 mmHg 52%
    23:00 +21°C° 0.1 mm 2 mps 614 mmHg 54%

    27 April, Saturday

    Time Temperature Precipitation Wind Pressure Humidity
    00:00 +20°C° 0 mm 2 mps 613 mmHg 56%
    01:00 +21°C° 0 mm 1 mps 613 mmHg 59%
    02:00 +20°C° 0 mm 1 mps 612 mmHg 61%
    03:00 +20°C° 0 mm 1 mps 612 mmHg 62%
    04:00 +19°C° 0 mm 1 mps 612 mmHg 64%
    05:00 +19°C° 0 mm 1 mps 612 mmHg 65%
    06:00 +21°C° 0 mm 1 mps 613 mmHg 56%
    07:00 +24°C° 0 mm 1 mps 614 mmHg 47%
    08:00 +26°C° 0 mm 1 mps 615 mmHg 38%
    09:00 +28°C° 0 mm 1 mps 616 mmHg 33%
    10:00 +30°C° 0 mm 1 mps 616 mmHg 28%
    11:00 +32°C° 0 mm 1 mps 616 mmHg 22%
    12:00 +32°C° 0 mm 2 mps 615 mmHg 21%
    13:00 +32°C° 0 mm 2 mps 615 mmHg 20%
    14:00 +34°C° 0 mm 2 mps 614 mmHg 19%
    15:00 +32°C° 0 mm 2 mps 614 mmHg 21%
    16:00 +31°C° 0 mm 2 mps 613 mmHg 23%
    17:00 +30°C° 0 mm 2 mps 613 mmHg 25%
    18:00 +29°C° 0 mm 2 mps 613 mmHg 27%
    19:00 +28°C° 0 mm 2 mps 614 mmHg 29%
    20:00 +27°C° 0 mm 2 mps 614 mmHg 30%
    21:00 +26°C° 0 mm 2 mps 614 mmHg 32%
    22:00 +25°C° 0 mm 1 mps 614 mmHg 34%
    23:00 +24°C° 0 mm 1 mps 614 mmHg 36%
    Show more